Theta_e
299 297 296 295 295 295 295 295 295 294 294 294 294 294 294 294 293 293 293 293 293 292 292 292 292 292 292 292 292 292 291 291 290 292 291 292 291 290 289 289 289 289 290
298 297 296 295 295 295 295 295 294 294 294 294 294 294 294 293 293 293 293 292 292 292 292 292 292 292 292 292 292 292 291 291 290 291 292 290 289 288 288 288 288 289 289
296 296 296 295 295 295 295 294 294 294 294 294 294 294 294 293 293 292 292 292 292 292 292 291 291 291 291 291 291 291 291 291 291 290 290 290 288 288 288 288 289 289 289
297 296 296 296 295 295 294 294 294 294 294 294 294 294 294 293 292 292 292 292 292 291 291 291 291 291 291 291 291 291 291 291 291 289 288 288 287 287 287 288 289 289 289
297 297 296 296 295 295 294 294 294 294 294 294 294 294 293 293 292 292 292 292 291 291 290 291 291 291 291 291 291 291 291 290 288 288 287 288 287 287 287 287 288 288 289
297 297 296 296 295 295 294 294 294 294 294 294 294 294 293 293 292 292 292 292 291 291 290 290 290 290 291 291 291 291 291 290 290 287 289 287 287 287 287 287 287 288 288
298 297 296 296 296 295 294 294 294 294 294 294 294 294 293 293 292 292 292 291 291 290 290 290 290 290 290 291 291 292 292 292 291 288 287 286 287 287 286 287 287 287 288
299 297 297 296 296 295 295 295 294 294 294 294 294 293 293 292 292 292 292 291 291 290 290 290 290 290 290 290 291 292 291 290 289 289 288 289 288 287 287 287 287 287 288
299 298 297 297 296 295 295 295 295 294 294 294 294 293 293 292 292 292 291 291 290 290 289 289 289 289 290 290 291 291 291 291 291 291 290 290 289 289 287 288 288 288 288
299 298 298 297 297 295 295 295 295 295 295 295 294 293 293 292 292 292 291 291 290 290 289 289 289 289 290 290 290 290 289 290 290 291 291 290 290 290 287 288 288 288 288
301 299 298 297 297 296 295 295 296 296 295 295 294 294 293 292 292 292 291 291 290 290 289 289 289 289 290 290 290 290 289 289 290 290 289 290 290 289 288 288 288 287 288
304 301 298 298 297 296 295 296 296 296 296 295 295 294 293 292 292 291 291 291 290 290 289 289 289 288 289 290 290 290 290 290 290 290 289 289 288 288 288 288 287 287 288
305 304 300 299 297 297 295 296 296 296 296 295 295 294 293 293 292 291 291 290 290 289 289 288 288 288 289 290 290 290 289 288 289 288 288 287 287 287 288 287 287 287 288
306 305 302 300 298 297 296 296 296 296 296 295 295 294 294 293 292 291 290 290 289 289 289 288 288 288 289 289 289 288 287 287 286 286 287 287 287 287 287 287 287 287 287
306 306 305 301 299 297 296 296 296 296 296 295 295 294 294 293 292 291 290 290 289 289 288 288 287 287 288 289 289 287 287 286 285 286 287 287 287 287 287 287 287 286 286
307 306 306 303 300 298 297 297 297 296 296 295 295 294 294 293 292 291 290 290 289 288 288 287 286 287 287 287 287 286 285 285 285 286 287 287 287 287 287 287 286 286 286
308 307 306 305 302 299 298 297 297 297 296 296 295 294 294 293 292 291 290 289 289 288 287 286 286 286 287 286 285 285 285 284 284 286 287 287 287 287 287 286 286 286 286
309 308 307 306 304 301 299 298 298 298 298 296 295 294 294 293 292 290 290 289 288 287 287 286 285 285 286 286 286 285 285 284 284 286 287 287 287 287 287 286 286 285 286
309 308 307 307 305 302 300 298 298 298 298 297 296 294 294 293 292 290 289 288 287 287 286 286 285 285 286 286 287 287 285 284 284 286 287 287 287 287 287 286 287 286 286
309 308 307 307 306 303 301 299 299 299 299 298 296 295 293 293 292 290 289 288 288 287 286 286 285 285 286 287 287 286 285 284 285 286 287 287 287 287 287 287 287 286 286
309 308 307 307 306 304 302 300 299 299 299 299 296 295 293 293 291 290 289 288 288 287 287 286 285 285 285 287 287 288 286 285 286 286 287 287 287 287 287 287 287 286 286
308 308 307 307 306 303 303 301 300 300 300 299 296 295 293 293 292 290 289 289 288 287 287 286 285 284 285 287 288 288 287 286 287 287 287 287 287 287 287 287 286 286 286
307 307 307 307 306 303 303 302 301 300 300 299 296 295 294 294 292 290 290 289 288 287 287 286 285 284 285 287 288 288 287 287 287 287 287 287 287 287 287 287 286 286 286
305 306 306 306 305 303 303 303 302 301 301 299 296 295 294 294 292 290 290 289 288 287 286 285 285 285 285 287 288 288 288 288 288 288 287 287 287 287 287 287 286 286 286
304 304 304 305 305 303 303 303 302 301 301 299 296 295 294 294 292 291 290 289 288 287 286 286 285 285 285 287 288 289 288 288 288 288 287 287 287 287 287 287 286 286 286
304 303 303 303 303 303 303 303 303 302 301 299 296 295 294 294 292 291 290 289 288 287 286 286 285 285 286 287 288 289 288 288 288 288 287 287 287 287 287 287 286 286 286
Wind_Speed
19 18 16 16 14 13 12 11 9 8 7 5 5 5 6 7 10 13 14 15 15 17 18 20 21 22 22 23 24 24 22 20 21 31 28 31 31 29 31 36 32 30 31
20 19 18 16 15 14 12 11 9 8 6 5 4 4 5 7 9 12 13 14 15 17 19 21 22 23 24 25 26 26 25 25 27 31 33 33 31 31 34 32 29 29 30
20 20 19 17 16 14 13 11 10 8 5 4 3 3 4 6 9 12 14 15 17 19 21 22 23 24 26 27 27 27 28 29 29 30 35 33 29 32 36 29 30 31 29
22 21 20 18 16 14 13 12 10 8 6 4 2 1 3 6 9 11 13 14 17 19 22 23 23 25 26 27 28 29 30 30 30 29 32 33 33 33 28 35 36 32 32
24 23 21 19 17 16 15 13 11 9 7 5 3 1 3 6 8 10 12 15 17 19 21 22 23 24 25 26 28 29 29 28 26 28 29 32 33 35 35 33 37 36 34
26 23 22 21 19 17 16 14 11 10 8 6 3 2 3 5 8 10 13 15 17 20 22 23 23 24 25 25 26 27 27 27 26 26 30 29 30 33 32 34 35 36 35
27 25 24 22 21 19 17 15 13 11 9 6 4 3 4 5 8 11 13 15 18 20 22 23 24 25 26 27 28 28 26 24 24 26 26 27 30 29 29 31 29 31 32
29 27 26 24 22 21 19 17 14 12 9 7 5 4 4 6 9 11 13 15 17 20 22 22 24 25 26 27 29 28 26 23 23 23 21 23 22 23 23 26 28 29 29
32 30 28 26 24 23 21 18 15 12 10 8 6 5 5 6 9 11 13 15 17 19 21 21 24 24 26 28 28 27 25 24 24 23 20 19 19 21 20 24 27 30 32
34 31 29 27 25 24 21 19 16 12 10 9 7 5 5 7 9 11 13 15 17 19 21 22 23 23 25 27 28 25 25 27 26 25 22 21 23 23 20 20 23 27 27
31 31 30 27 26 23 22 20 17 14 12 9 7 6 6 7 9 11 13 15 17 19 21 23 23 23 23 25 27 24 23 24 24 25 24 25 25 21 21 21 21 21 24
33 32 31 28 28 26 25 22 20 17 13 11 8 7 6 8 9 11 13 15 17 19 21 23 23 22 21 22 23 23 21 22 23 25 26 26 26 23 23 24 22 19 15
36 33 31 30 29 28 28 25 23 19 15 12 9 7 7 8 9 10 12 14 16 18 20 22 23 23 21 20 22 23 22 22 23 25 25 25 24 23 22 24 23 18 13
37 35 33 33 32 30 29 27 23 20 17 13 10 8 8 8 9 10 11 13 15 17 20 21 21 20 19 20 20 22 20 22 22 22 24 23 22 23 23 24 25 20 17
39 36 34 34 33 32 31 28 24 20 15 12 11 10 9 9 9 10 11 12 15 17 19 21 22 22 21 20 20 21 21 21 21 21 23 23 21 22 22 22 24 20 17
42 40 37 35 35 34 32 30 26 21 18 16 13 11 10 9 9 10 11 12 15 17 18 20 21 21 20 19 20 21 20 21 21 21 22 21 19 21 21 21 22 17 15
40 39 39 36 35 35 34 32 29 25 21 18 15 12 10 9 9 10 11 12 14 16 17 19 21 21 19 17 17 19 21 21 20 21 21 21 19 18 19 19 21 18 14
39 38 38 37 35 35 34 32 29 26 22 19 16 13 12 10 9 10 11 12 13 15 16 18 20 20 18 16 17 20 21 21 20 21 20 19 19 18 16 17 18 19 14
40 40 39 38 34 32 32 32 30 27 23 20 18 16 13 11 10 10 11 11 13 14 16 17 20 20 18 16 17 20 20 20 19 21 19 19 18 16 16 14 15 16 13
41 40 39 37 35 32 31 31 31 29 25 22 20 16 14 12 11 10 11 12 13 14 15 17 19 19 18 16 17 20 21 20 20 20 19 18 16 14 14 13 12 12 10
40 39 38 38 35 31 30 31 31 29 26 23 19 16 14 12 12 12 11 11 12 13 15 16 18 19 18 15 16 19 19 19 19 20 18 17 14 13 11 11 9 9 8
36 38 38 38 36 33 30 30 30 29 26 22 20 19 16 14 13 12 11 11 12 13 15 16 17 19 17 15 15 18 18 18 19 18 16 15 13 11 9 10 8 7 6
33 37 41 40 38 34 30 28 29 29 26 23 22 21 18 15 13 12 11 11 11 12 14 15 17 18 16 14 14 16 17 17 17 15 14 12 10 9 7 7 6 6 5
27 31 35 38 38 36 32 28 29 29 27 24 23 22 18 15 13 12 11 10 10 12 14 15 16 16 15 13 13 14 15 15 15 13 10 10 9 7 5 4 5 5 5
21 24 28 33 37 36 34 30 28 29 28 26 25 22 19 17 14 13 11 10 10 11 12 14 15 15 14 12 12 13 13 13 12 11 8 7 7 5 3 2 2 3 4
19 22 24 29 35 36 34 31 28 29 29 28 26 23 20 17 15 13 12 10 10 11 12 13 14 14 13 11 10 11 12 12 10 8 7 6 5 3 2 1 1 2 3
Wind_Direction
181 183 184 182 175 177 173 160 153 144 134 121 99 79 62 46 37 34 30 27 21 16 12 10 8 3 359 357 354 350 345 336 321 329 330 339 339 336 337 338 337 334 333
189 187 185 184 183 180 174 167 163 159 155 139 109 79 55 40 32 27 24 20 15 12 10 8 4 1 358 357 354 349 343 340 334 331 340 340 340 340 335 333 337 333 330
191 189 188 187 185 182 178 176 176 173 162 145 112 71 44 30 25 21 17 12 10 10 7 4 1 360 357 356 353 347 343 342 341 337 337 342 338 340 339 338 336 335 335
192 192 191 189 187 185 184 184 183 180 176 170 153 51 24 21 19 14 8 6 7 6 4 1 359 357 354 355 350 346 344 342 341 339 338 339 340 343 340 337 338 339 337
195 195 192 191 191 191 190 189 190 189 187 188 195 293 3 9 11 5 0 3 6 3 360 359 357 354 354 352 348 346 343 342 340 338 335 338 340 341 342 338 336 337 338
197 196 194 195 195 195 194 194 195 197 198 200 209 275 332 352 357 359 359 1 1 358 357 356 353 353 353 349 348 347 345 344 343 339 339 336 335 336 338 339 339 337 338
198 197 198 198 198 198 197 198 200 202 203 206 219 258 306 335 351 355 356 359 357 354 354 351 352 351 349 347 348 348 347 346 347 343 334 334 330 339 341 340 338 336 332
200 199 200 200 199 200 201 200 203 205 206 212 229 257 297 329 344 350 354 355 352 351 350 349 350 349 347 346 346 348 348 348 345 345 337 341 347 347 341 338 340 334 336
203 202 202 201 202 202 202 202 205 205 209 219 236 258 295 322 338 345 351 349 347 349 349 349 347 347 347 347 347 345 347 347 349 349 345 345 342 343 346 346 349 345 340
206 204 204 204 205 205 203 204 205 206 213 224 238 260 295 314 331 338 346 341 345 347 350 348 347 347 345 347 347 346 344 346 348 349 354 354 351 356 6 359 354 349 347
207 206 206 205 206 206 205 205 206 210 217 226 239 262 291 309 322 333 338 339 343 347 348 346 346 346 345 346 344 346 344 344 349 351 354 357 358 6 6 1 354 352 350
208 208 207 206 207 206 206 206 208 213 218 226 237 260 283 300 316 327 333 336 342 345 345 345 344 345 346 343 342 346 348 352 351 354 357 359 3 7 4 359 360 357 354
209 208 208 208 208 207 207 208 211 214 219 226 236 256 277 295 311 320 327 332 339 342 342 344 345 342 345 348 351 353 357 354 355 357 359 358 7 6 2 360 3 1 5
210 210 210 209 209 208 210 213 216 217 220 226 237 254 273 289 303 314 322 329 335 339 343 346 346 344 349 353 355 356 357 357 358 355 358 359 5 6 5 3 358 5 10
212 212 212 212 212 211 213 214 216 219 225 233 240 254 272 286 300 312 319 327 333 339 343 347 346 347 350 355 356 355 357 356 355 356 358 360 4 3 4 4 360 12 16
213 214 214 214 213 213 215 214 214 216 222 232 239 251 268 282 297 308 317 325 333 339 345 345 345 346 350 352 353 353 354 354 353 354 356 359 358 1 359 5 1 10 11
215 215 216 216 216 216 215 216 216 216 223 230 237 246 260 277 294 306 315 324 331 338 341 342 344 345 348 348 348 350 350 351 352 353 356 357 354 357 0 2 357 5 7
212 215 217 216 217 218 218 218 218 221 227 233 238 245 255 272 289 300 308 318 325 331 334 340 342 342 346 344 346 349 350 350 350 354 356 355 354 355 358 3 356 357 4
211 214 216 217 219 220 219 218 219 222 226 231 235 241 248 263 278 289 299 309 318 323 329 335 340 340 343 343 344 348 349 349 349 352 356 355 354 355 358 1 358 354 10
213 214 215 214 216 217 217 217 218 220 224 230 234 239 242 255 270 280 288 300 311 318 323 330 336 338 340 343 344 347 350 349 348 352 355 355 355 357 359 3 356 360 16
212 214 215 213 214 216 215 216 217 220 225 231 234 237 242 252 261 271 280 292 305 312 318 325 332 336 338 342 344 346 348 348 348 352 354 355 356 1 5 6 357 10 31
214 212 212 214 214 214 215 216 218 220 225 229 228 231 236 244 254 263 274 287 300 309 316 322 328 334 334 337 340 344 347 349 350 351 353 356 358 2 4 6 10 19 35
215 216 215 213 212 213 214 217 218 219 223 225 226 228 233 240 249 259 270 283 297 307 314 319 325 331 330 335 338 342 347 348 350 349 349 356 359 1 3 10 18 25 35
217 220 220 218 214 213 215 219 218 219 221 223 225 227 230 238 247 256 266 280 294 304 311 317 323 327 330 334 334 343 349 348 348 349 350 354 359 3 359 10 19 31 46
214 217 218 218 217 216 217 220 221 220 220 223 223 224 227 233 241 251 261 274 288 299 308 315 320 323 327 329 332 344 348 348 348 347 352 354 350 351 350 18 37 51 56
214 214 215 215 216 217 218 221 223 221 221 222 221 222 224 231 236 244 256 267 282 297 306 311 315 319 323 325 330 342 346 348 349 346 349 359 4 6 15 44 96 90 76